SCP
0 0 0 0 0 0 0 0 0 0 0 0 0 0 0 0 0 1 1 1 1 1 1 0 0 0 0 0 0 0 0 0 0 0 0 0 0 0 0 0 0 0 0
0 0 0 0 0 0 0 0 0 0 0 0 0 0 0 0 1 1 1 1 1 0 0 0 0 0 0 0 0 0 0 0 0 0 0 0 0 0 0 0 0 0 0
0 0 0 0 0 0 0 0 0 0 0 0 0 1 1 0 0 1 0 0 0 0 0 0 0 0 0 0 0 0 0 0 0 0 0 0 0 0 0 0 0 0 0
0 0 0 0 0 0 0 0 0 0 0 0 0 1 1 0 0 0 0 0 0 0 0 0 0 0 0 0 0 0 0 0 0 0 0 0 0 0 0 0 0 0 0
0 0 0 1 1 1 1 0 0 0 0 0 0 0 0 0 0 0 0 0 0 0 0 0 0 0 0 0 0 0 0 0 0 0 0 0 0 0 0 0 0 0 0
0 0 0 0 1 1 1 0 0 0 0 0 0 0 0 0 0 0 0 0 0 0 0 0 0 0 0 0 0 0 0 0 0 0 0 0 0 0 0 0 0 0 0
0 0 0 0 1 1 1 1 1 1 1 1 1 0 0 0 0 0 0 0 0 0 0 0 0 0 0 0 0 0 0 0 0 0 0 0 0 0 0 0 0 0 0
0 0 0 0 0 1 1 1 1 1 1 1 1 0 0 0 0 0 0 0 0 0 0 0 0 0 0 0 0 0 0 0 0 0 0 0 0 0 0 0 0 0 0
0 0 0 0 0 0 0 1 1 1 1 1 1 0 0 0 0 0 0 0 0 0 0 0 0 0 0 0 0 0 0 0 0 0 0 0 0 0 0 0 0 0 0
0 0 0 0 0 0 0 0 0 1 0 0 0 0 0 0 0 0 0 0 0 0 0 0 0 0 0 0 0 0 0 0 0 0 0 0 0 0 0 0 0 0 0
0 0 0 0 0 0 0 0 0 0 0 0 0 0 0 0 0 0 0 0 0 0 0 0 0 0 0 0 0 0 0 0 0 0 0 0 0 0 0 0 0 0 0
0 0 0 0 0 0 0 0 0 0 0 0 0 0 0 0 0 0 0 0 0 0 0 0 0 0 0 0 0 0 0 0 0 0 0 0 0 0 0 0 0 0 0
0 0 0 0 0 0 0 0 0 0 0 0 0 0 0 0 0 0 0 0 0 0 0 0 0 0 0 0 0 0 0 0 0 0 0 0 0 0 0 0 0 0 0
0 0 0 0 0 0 0 0 0 0 0 0 0 0 0 0 0 0 0 0 0 0 0 0 0 0 0 0 0 0 0 0 0 0 0 0 0 0 0 0 0 0 0
0 0 0 0 0 0 0 0 0 0 0 0 0 0 0 0 0 0 0 0 0 0 0 0 0 0 0 0 0 0 0 0 0 0 0 0 0 0 0 0 0 0 0
0 0 0 0 0 0 0 0 0 0 0 0 0 0 0 0 0 0 0 0 0 0 0 0 0 0 0 0 0 0 0 0 0 0 0 0 0 0 0 0 0 0 0
0 0 0 0 0 0 0 0 0 0 0 0 0 0 0 0 0 0 0 0 0 0 0 0 0 0 0 0 0 0 0 0 0 0 0 0 0 0 0 0 0 0 0
0 0 0 0 0 0 0 0 0 0 0 0 0 0 0 0 0 0 0 0 0 0 0 0 0 0 0 0 0 0 0 0 0 0 0 0 0 0 0 0 0 0 0
0 0 0 0 0 0 0 0 0 0 0 0 0 0 0 0 0 0 0 0 0 0 0 0 0 0 0 0 0 0 0 0 0 0 0 0 0 0 0 0 0 0 0
0 0 0 0 0 0 0 0 0 0 0 0 0 0 0 0 0 0 0 0 0 0 0 0 0 0 0 0 0 0 0 0 0 0 0 0 0 0 0 0 0 0 0
0 0 0 0 0 0 0 0 0 0 0 0 0 0 0 0 0 0 0 0 0 0 0 0 0 0 0 0 0 0 0 0 0 0 0 0 0 0 0 0 0 0 0
0 0 0 0 0 0 0 0 0 0 0 0 0 0 0 0 0 0 0 0 0 0 0 0 0 0 0 0 0 0 0 0 0 0 0 0 0 0 0 0 0 0 0
0 0 0 0 0 0 0 0 0 0 0 0 0 0 0 0 0 0 0 0 0 0 0 0 0 0 0 0 0 0 0 0 0 0 0 0 0 0 0 0 0 0 0
-0 0 0 0 0 0 0 0 0 0 0 0 0 0 0 0 0 0 0 0 0 0 0 0 0 0 0 0 0 0 0 0 0 0 0 0 0 0 0 0 0 0 0
0 0 0 0 0 0 0 0 0 0 0 0 0 0 0 0 0 0 0 0 0 0 0 0 0 0 0 0 0 0 0 0 0 0 0 0 0 0 0 0 0 0 0
0 0 0 0 0 0 0 0 0 0 0 0 0 0 0 0 0 0 0 0 0 0 0 0 0 0 0 0 0 0 0 0 0 0 0 0 0 0 0 0 0 0 0
Wind_Speed
10 13 17 15 15 14 13 12 10 9 9 9 9 9 9 9 9 9 10 11 12 12 12 12 12 12 12 11 11 11 10 11 11 11 12 12 11 12 11 8 5 9 10
12 15 16 14 15 14 13 12 11 10 10 10 10 10 11 11 11 11 11 11 11 11 10 9 9 9 9 9 9 9 9 9 9 9 7 9 11 10 11 10 10 9 11
12 15 16 13 15 14 13 12 11 10 11 11 12 12 12 11 11 10 9 10 10 10 9 8 7 7 7 7 8 8 8 8 8 6 3 5 8 9 9 9 10 11 12
12 14 15 13 14 15 14 13 11 10 11 12 13 13 12 11 10 8 8 8 8 8 8 8 7 7 7 7 7 7 7 7 6 2 3 4 5 8 7 9 9 10 11
12 12 12 11 14 15 15 15 13 12 11 12 13 13 11 10 9 7 6 7 8 8 7 7 7 7 7 7 7 7 7 7 4 2 4 4 5 8 7 8 9 9 9
12 12 12 10 12 13 14 15 14 13 13 14 14 13 11 10 8 7 7 7 8 8 7 7 7 7 7 7 7 8 7 6 1 4 5 4 5 9 9 9 9 9 9
13 12 13 12 12 12 12 13 13 14 15 15 14 13 11 10 9 8 8 8 8 8 8 8 8 8 8 8 8 8 7 6 4 5 5 5 7 8 9 10 10 10 10
12 12 12 12 11 11 12 12 12 13 14 14 13 12 11 10 10 10 9 9 9 9 9 9 9 8 8 8 8 8 7 4 4 5 5 5 7 6 7 7 8 8 9
11 11 12 14 13 11 11 11 12 12 12 12 11 11 10 10 11 10 9 10 10 10 10 9 8 8 8 8 8 8 8 6 4 4 5 5 6 6 6 6 6 6 6
11 12 13 13 14 14 14 12 11 12 12 11 11 10 10 10 10 9 8 10 11 11 10 10 9 8 8 8 8 8 6 3 5 5 3 5 6 5 5 5 5 5 5
12 13 14 14 14 14 14 13 12 12 12 12 11 11 11 10 11 9 10 9 11 11 10 10 10 9 8 8 7 6 3 3 5 4 4 5 5 4 4 4 4 5 5
17 17 15 16 16 15 12 11 11 11 12 12 11 12 11 9 7 8 7 7 9 9 10 10 10 8 4 4 5 2 3 4 3 3 3 5 3 2 3 4 4 5 6
15 16 16 17 16 15 11 10 8 8 9 11 13 14 11 9 7 7 6 7 9 9 8 8 7 4 3 3 2 3 3 2 2 2 3 5 3 1 3 4 5 6 6
14 15 17 17 16 17 14 11 11 9 9 9 12 15 11 8 9 8 7 8 7 6 6 6 4 5 4 4 4 3 3 2 2 1 3 6 5 0 4 5 6 7 7
16 16 16 18 18 17 16 12 12 12 12 12 12 14 14 11 10 10 8 7 8 6 6 5 5 6 5 5 3 3 3 3 3 2 2 4 6 2 4 6 7 8 9
17 17 16 19 20 19 16 15 14 13 13 13 13 15 17 12 11 11 10 9 8 7 6 6 7 6 5 4 4 3 3 4 4 4 3 3 6 5 5 6 7 8 9
16 16 17 18 19 21 21 19 14 14 14 14 13 16 17 15 13 12 10 10 9 8 8 6 7 5 5 5 5 4 4 4 5 5 5 4 5 10 10 9 9 9 9
15 16 17 15 19 21 20 18 14 13 15 13 13 14 18 17 15 12 10 10 10 8 8 7 7 6 5 5 5 4 4 4 5 6 5 5 4 4 8 9 8 7 6
14 15 15 16 18 19 19 16 15 13 14 13 13 13 16 18 17 13 11 10 11 9 8 8 7 6 6 6 5 4 4 4 5 5 6 6 5 4 4 6 8 8 6
11 11 11 12 15 15 13 13 12 14 13 13 13 14 17 16 18 15 11 12 12 10 9 9 9 6 6 7 6 5 4 4 4 5 5 5 4 4 3 3 3 6 7
11 9 8 9 10 11 11 12 12 13 12 12 12 14 17 17 18 16 12 13 13 12 13 13 9 10 7 8 6 5 4 4 4 4 4 4 4 3 3 3 3 3 3
15 14 11 8 7 10 10 10 9 10 10 11 10 12 15 16 17 15 16 13 14 13 14 15 12 9 7 9 6 5 5 5 5 5 4 4 4 3 3 4 5 4 4
17 17 13 11 7 7 9 8 6 7 6 8 10 10 12 14 15 15 17 15 15 15 14 16 16 15 10 9 6 5 6 7 6 6 7 5 4 3 4 4 5 5 5
19 16 16 14 10 5 5 7 9 8 9 9 8 8 10 13 14 15 16 16 15 14 15 15 15 13 12 11 7 5 3 3 6 6 6 7 6 5 5 5 5 5 5
19 18 17 16 14 9 3 6 8 8 7 6 6 9 10 11 14 15 15 15 15 13 15 15 15 15 11 12 9 6 5 3 3 5 6 7 7 6 5 6 5 5 5
19 18 18 18 17 14 8 4 6 9 9 8 8 7 8 8 10 15 15 14 15 13 15 15 15 17 14 13 10 8 7 7 7 5 5 6 6 6 7 6 6 6 5
Wind_Direction
182 173 163 180 173 168 162 156 149 145 142 139 136 130 121 110 102 101 104 101 94 87 81 78 78 79 78 77 74 69 63 59 58 58 58 64 79 80 73 55 48 70 58
167 170 162 177 174 171 166 160 155 153 155 154 148 140 131 120 110 104 103 104 99 93 87 83 82 80 78 75 73 70 67 63 60 57 57 74 70 78 75 64 51 60 58
166 169 169 176 174 173 170 167 164 166 167 162 153 143 134 126 118 112 107 105 101 96 91 85 81 78 75 72 70 70 70 70 66 56 39 79 75 72 81 76 69 65 62
171 173 177 172 175 175 174 173 174 179 178 169 157 146 138 131 126 119 111 106 102 98 93 89 85 81 75 68 64 62 64 68 66 41 82 74 74 69 84 86 76 69 65
175 180 176 174 180 179 178 178 180 187 187 171 157 147 141 134 128 125 121 115 112 110 106 100 96 91 83 74 69 64 61 60 53 66 78 77 74 67 81 91 87 77 70
177 182 177 184 188 188 186 186 187 189 184 168 157 152 147 141 141 145 143 135 131 128 124 119 115 105 95 85 78 73 67 53 22 66 68 65 70 67 74 85 91 87 81
178 184 183 184 190 193 194 195 194 189 178 167 162 159 154 152 158 163 159 152 146 141 137 133 125 118 110 99 89 80 71 57 59 68 60 60 61 65 68 72 78 83 85
183 185 188 183 188 186 188 190 188 181 174 171 168 166 164 166 173 175 172 165 158 153 146 137 130 124 114 103 92 82 74 60 85 73 67 62 41 60 65 63 68 74 78
191 192 195 192 191 186 185 184 181 176 174 174 175 175 170 170 177 178 178 175 169 161 151 142 135 126 116 106 95 84 75 55 77 72 64 52 26 53 58 52 54 61 66
202 203 201 201 199 197 195 192 188 182 179 177 178 173 164 167 176 173 179 182 175 164 154 146 138 129 117 106 97 89 80 69 69 71 55 44 26 48 54 48 47 52 56
212 210 208 206 206 205 203 199 198 192 186 180 179 165 166 186 185 180 188 185 176 164 157 150 140 127 117 104 93 90 80 65 69 57 47 24 22 50 64 62 61 64 66
212 209 209 210 208 208 207 204 207 205 200 196 193 183 187 189 185 185 178 191 166 157 159 152 138 131 136 122 108 108 75 74 70 59 44 5 8 57 91 94 93 89 85
219 209 209 210 209 208 206 207 206 204 204 201 197 190 184 181 178 186 180 175 167 165 164 150 150 158 148 125 119 97 87 84 73 69 46 351 338 104 124 121 114 105 100
229 217 209 207 209 209 207 205 206 203 200 197 195 190 184 183 184 185 185 180 175 173 164 161 159 149 135 122 118 116 118 111 98 84 50 344 330 251 140 129 122 119 112
237 228 216 208 209 207 207 206 205 204 201 200 195 192 191 187 187 185 184 182 181 173 171 166 161 153 144 135 133 137 132 120 123 126 104 4 339 328 132 128 125 118 107
240 236 222 213 211 207 206 207 205 203 200 200 197 196 194 191 187 185 183 184 182 178 173 169 162 156 149 144 146 147 150 141 135 140 126 91 35 38 100 108 111 110 104
242 237 228 220 214 211 210 210 207 204 200 199 198 197 196 194 189 185 184 184 181 173 165 161 158 155 149 152 156 157 153 151 146 140 136 121 85 56 62 74 81 86 88
249 238 230 219 216 215 214 213 210 207 203 202 198 196 197 195 190 186 184 184 175 170 170 166 164 163 163 165 163 157 150 145 142 140 134 128 107 90 71 59 59 67 73
259 248 237 223 219 217 216 216 214 210 207 205 201 197 196 194 190 187 186 179 173 172 174 170 171 169 167 161 152 145 143 142 139 135 126 116 103 97 92 71 52 45 51
289 273 256 236 225 219 216 219 219 217 213 211 207 203 196 193 190 188 185 177 174 174 176 176 169 169 159 147 132 125 129 141 149 138 130 116 102 92 92 96 88 64 52
339 323 296 264 234 215 208 209 214 217 215 216 215 208 202 196 191 190 184 178 179 181 182 177 165 163 160 155 140 133 135 153 168 159 151 142 124 108 109 119 116 117 91
2 353 338 308 263 226 214 210 214 219 220 219 218 217 210 203 197 194 188 183 184 183 183 182 173 172 165 183 168 151 164 184 196 190 179 170 158 147 138 135 127 129 126
10 3 357 347 314 257 228 216 207 215 225 218 218 217 215 214 207 204 197 189 189 188 188 187 185 179 175 188 210 190 178 183 163 176 193 190 186 178 162 149 142 135 128
12 9 12 11 2 329 248 221 213 213 220 222 219 217 212 216 217 215 208 200 195 195 193 191 190 191 183 183 193 230 263 174 163 162 181 197 200 203 184 167 161 155 148
17 15 17 21 22 10 321 242 233 239 244 245 227 220 214 211 218 221 216 209 202 201 198 192 190 193 194 190 184 176 186 193 201 166 167 178 194 202 193 182 173 171 166
23 22 21 23 24 16 5 313 259 256 257 254 239 227 215 210 214 220 221 216 210 206 202 197 195 196 199 200 194 186 177 176 187 187 164 163 179 178 186 188 184 180 178